| time (UTC) | temp F | wind direction | speed knots | gust knots | rain 1hr in | rain 24hr in | rain mn in | humidity % | barometer mb |
| 20260505034506 | 64 | 199 | 0.9 | 5.2 | 0.00 | 0.00 | 0.00 | 70 | 1015.2 |
| 20260505033005 | 64 | 249 | 0.9 | 4.3 | 0.00 | 0.00 | 0.00 | 70 | 1015.0 |
| 20260505031505 | 64 | 213 | 0.9 | 5.2 | 0.00 | 0.00 | 0.00 | 69 | 1014.9 |
| 20260505030005 | 65 | 235 | 0.9 | 4.3 | 0.00 | 0.00 | 0.00 | 69 | 1015.0 |
| 20260505024505 | 65 | 204 | 0.9 | 7.8 | 0.00 | 0.00 | 0.00 | 69 | 1015.0 |
| 20260505023005 | 65 | 191 | 0.9 | 5.2 | 0.00 | 0.00 | 0.00 | 70 | 1015.0 |
| 20260505021505 | 65 | 242 | 0.9 | 7.0 | 0.00 | 0.00 | 0.00 | 69 | 1015.1 |
| 20260505020026 | 65 | 233 | 1.7 | 5.2 | 0.00 | 0.00 | 0.00 | 69 | 1015.0 |
| 20260505014505 | 66 | 195 | 0.9 | 9.6 | 0.00 | 0.00 | 0.00 | 68 | 1014.9 |
| 20260505013005 | 66 | 240 | 0.9 | 7.0 | 0.00 | 0.00 | 0.00 | 68 | 1014.8 |
| 20260505011526 | 66 | 216 | 0.9 | 5.2 | 0.00 | 0.00 | 0.00 | 68 | 1014.6 |
| 20260505010005 | 67 | 201 | 0.9 | 7.8 | 0.00 | 0.00 | 0.00 | 68 | 1014.3 |
| 20260505004526 | 67 | 252 | 0.9 | 6.1 | 0.00 | 0.00 | 0.00 | 67 | 1014.1 |
| 20260505003027 | 67 | 245 | 1.7 | 3.5 | 0.00 | 0.00 | 0.00 | 67 | 1014.1 |
| 20260505001506 | 68 | 245 | 0.9 | 6.1 | 0.00 | 0.00 | 0.00 | 66 | 1013.8 |
| 20260505000004 | 68 | 236 | 0.9 | 7.8 | 0.00 | 0.00 | 0.00 | 67 | 1013.6 |
| 20260504234504 | 69 | 236 | 0.9 | 6.1 | 0.00 | 0.00 | 0.00 | 66 | 1013.5 |
| 20260504233005 | 69 | 237 | 1.7 | 6.1 | 0.00 | 0.00 | 0.00 | 65 | 1013.1 |
| 20260504231505 | 70 | 268 | 2.6 | 7.8 | 0.00 | 0.00 | 0.00 | 64 | 1013.1 |
| 20260504230006 | 70 | 240 | 1.7 | 6.1 | 0.00 | 0.00 | 0.00 | 63 | 1012.9 |
| 20260504224525 | 71 | 236 | 2.6 | 8.7 | 0.00 | 0.00 | 0.00 | 62 | 1012.8 |
| 20260504223004 | 71 | 250 | 1.7 | 9.6 | 0.00 | 0.00 | 0.00 | 61 | 1012.8 |
| 20260504221504 | 72 | 249 | 1.7 | 9.6 | 0.00 | 0.00 | 0.00 | 61 | 1012.9 |
| 20260504220005 | 72 | 231 | 2.6 | 8.7 | 0.00 | 0.00 | 0.00 | 60 | 1012.9 |
| 20260504214505 | 73 | 271 | 2.6 | 10.4 | 0.00 | 0.00 | 0.00 | 59 | 1013.0 |
| 20260504213005 | 74 | 267 | 1.7 | 7.0 | 0.00 | 0.00 | 0.00 | 57 | 1013.0 |
| 20260504211504 | 75 | 266 | 1.7 | 11.3 | 0.00 | 0.00 | 0.00 | 55 | 1013.0 |
| 20260504210004 | 76 | 251 | 1.7 | 10.4 | 0.00 | 0.00 | 0.00 | 52 | 1013.1 |
| 20260504204525 | 77 | 249 | 2.6 | 7.0 | 0.00 | 0.00 | 0.00 | 51 | 1013.1 |
| 20260504203004 | 79 | 175 | 0.9 | 8.7 | 0.00 | 0.00 | 0.00 | 40 | 1013.0 |
| 20260504201505 | 78 | 246 | 1.7 | 7.8 | 0.00 | 0.00 | 0.00 | 42 | 1013.1 |
| 20260504200004 | 79 | 254 | 0.9 | 7.0 | 0.00 | 0.00 | 0.00 | 40 | 1013.0 |
| 20260504194505 | 80 | 189 | 0.9 | 4.3 | 0.00 | 0.00 | 0.00 | 43 | 1013.1 |
| 20260504193004 | 78 | 233 | 0.9 | 6.1 | 0.00 | 0.00 | 0.00 | 41 | 1013.3 |
| 20260504191504 | 79 | 241 | 0.9 | 7.8 | 0.00 | 0.00 | 0.00 | 40 | 1013.5 |
| 20260504190004 | 78 | 255 | 1.7 | 5.2 | 0.00 | 0.00 | 0.00 | 43 | 1013.7 |
| 20260504184526 | 78 | 221 | 1.7 | 6.1 | 0.00 | 0.00 | 0.00 | 44 | 1014.0 |
| 20260504183026 | 77 | 205 | 1.7 | 7.0 | 0.00 | 0.00 | 0.00 | 44 | 1014.2 |
| 20260504181504 | 76 | 214 | 1.7 | 7.8 | 0.00 | 0.00 | 0.00 | 43 | 1014.5 |
| 20260504180004 | 76 | 221 | 1.7 | 7.0 | 0.00 | 0.00 | 0.00 | 43 | 1014.6 |
| 20260504174505 | 77 | 189 | 0.9 | 7.0 | 0.00 | 0.00 | 0.00 | 43 | 1014.7 |
| 20260504173005 | 76 | 190 | 1.7 | 10.4 | 0.00 | 0.00 | 0.00 | 46 | 1014.9 |
| 20260504171504 | 75 | 201 | 1.7 | 9.6 | 0.00 | 0.00 | 0.00 | 47 | 1015.1 |
| 20260504081524 | 49 | 214 | 0.0 | 0.9 | 0.00 | 0.00 | 0.00 | 92 | 1017.1 |
| 20260504050005 | 54 | 256 | 0.0 | 0.9 | 0.00 | 0.00 | 0.00 | 85 | 1017.4 |
| 20260504044505 | 54 | 275 | 0.0 | 0.9 | 0.00 | 0.00 | 0.00 | 84 | 1017.5 |
| 20260504043005 | 54 | 258 | 0.0 | 1.7 | 0.00 | 0.00 | 0.00 | 84 | 1017.4 |
| 20260504041506 | 54 | 262 | 0.0 | 1.7 | 0.00 | 0.00 | 0.00 | 84 | 1017.4 |
| 20260504040006 | 54 | 265 | 0.0 | 2.6 | 0.00 | 0.00 | 0.00 | 83 | 1017.4 |